FENGYUN 1C DEB

Satellite information

Favourite Embed

Satellite Type and Status

DEBRISIN ORBIT

Key statistics

Satellite FENGYUN 1C DEB at a glance.

Uptime

9610

Days in orbit

Revolutions

≈ 13.6

Per day

Orbit

SSO

Sun Synchronous Orbit

Inclination

98.7

Latest

Satellite identification and parameters

Extended collection of information and parameters for FENGYUN 1C DEB.

Object identification

Identified? True

Debris? True

Object name: FENGYUN 1C DEB

International designator: 1999-025ACZ

Object number (NORAD): 30386

Object ID (CCSDS): 30386

Country: PEOPLES REPUBLIC OF CHINA (PRC)

Current information (Y/N): Y

RCS size: SMALL

Orbital parameters

Period: 106.264 minutes

Inclination: 98.6909 deg

SMA: 7431.655 km

Apoapsis: 1283.269 km

Periapsis: 823.771 km

RAAN: 149.2891 deg

Eccentricy: 0.03091489

Argument of periapsis: 67.7316 deg

Mean anomaly: 355.248 deg

Mean motion: 13.55109678 rev/day

Mean motion (dot): 0.00002007 rev/day2

B* drag term: 0.002179547 1/REarth

Two-line elements (TLE)

Creation date: Aug. 30, 2025, 3:38 a.m.

Reference frame: TEME

Reference center: EARTH

Epoch: Aug. 29, 2025, 4:27 p.m. UTC

TLE line 0: 0 FENGYUN 1C DEB

TLE line 1: 1 30386U 99025ACZ 25241.68603762 .00002007 00000-0 21795-2 0 9992

TLE line 2: 2 30386 98.6909 149.2891 0309149 67.7316 355.2480 13.55109678914065

Live tracking on map

Real-time ground track for satellite FENGYUN 1C DEB.

In-orbit conjunctions

A list of the most updated potential collisions computed for object FENGYUN 1C DEB.

Target Orbit TCA Probability of collision Miss distance Type
SL-3 R/B LEO 2025-06-12 11:01:26 0.0002696761 140.0 (m) ROCKET BODY
COSMOS 2218 LEO 2024-08-05 17:13:19 0.0001537135 338.0 (m) PAYLOAD

Associated space launch

Chinese polar orbiting meteorological satellite

FENGYUN 1C DEB was lifted into orbit during the mission ‘Long March 4B | Feng Yun 1C’, on board a Long March 4B space rocket.

The launch took place on May 10, 1999, 1:33 a.m. from Launch Complex 7.

For more information about the launch, click the button.

Launch to space Long March 4B | Feng Yun 1C
Long March 4B | Feng Yun 1C

Agency: N/A

Status: Launch Successful

Launch date: May 10, 1999, 1:33 a.m. UTC

Rocket: Long March 4B

Launch pad: Launch Complex 7

Location: Taiyuan Satellite Launch Center, People's Republic of China

...

Latest news about this satellite

There are no fresh news available about this satellite. Check back as we update our databases every day.


Newsletter sign-up

Weekly statistics, charts and insights to help you stay on top of the space industry.